Airfield :
LOGIN :

Register | Disclaimer

   EN    FR    IT 

 










Legend :    VFR   Marginal VFR   IFR   Intensive IFR   Very Intensive IFR
Visi :
Ceiling :
>= 8 km
>= 3000ft
5 to 8 km
1000 to 3000 ft
1500m to 5 km
500 to 1000 ft
800 to 1500m
200 to 500 ft
< 800m
< 200 ft
Symbols :   Thunderstorms  Fog  Heavy snow  Heavy precipitations  Wind > 20 kt
SIGMETs :     Misc.  Thunderstorms  Icing  Turbulence  Mountain Waves  Volcanic Ashes







- Airport Elevation : 392 ft
- IATA code : CDG
- Download approach charts


LFPG - Paris-Aeroport Charles De Gaulle

CURRENT METAR :
  • 241000Z 26009KT 230V300 9999 FEW036 BKN260 16/07 Q1020 NOSIG

EXPIRED METARs :
  • 240930Z 25009KT 9999 FEW036 BKN260 16/07 Q1020 NOSIG
  • 240900Z 25008KT 220V320 CAVOK 15/07 Q1020 NOSIG
  • 240830Z 23010KT CAVOK 14/06 Q1020 NOSIG
  • 240800Z 22007KT 200V270 CAVOK 13/06 Q1020 NOSIG
  • 240730Z 24007KT 180V300 CAVOK 12/06 Q1020 NOSIG

TAF TAF LFPG
Valid from the 24 at 06:00 until the 25 at 12:00 UTC


240500Z 2406/2512 22005KT CAVOK
PROB40
TEMPO 2507/2509 BKN012
BECMG 2508/2510 27010G20KT
PROB30
TEMPO 2509/2512 FEW015TCU TX21/2415Z TN09/2406Z
ATIS : +33 1 48 62 10 92
No reported NOTAMs for that airfield.



MET'MAP, your aeronautical weather chart ! - Copyright ORBIFLY December 2007 - Disclaimer

ORBIFLY MET'MAP TEAM :

Programming & Development : Alexandra Zaïnal
Concept & Development : Baudouin d'Aumeries
Co-Development & Prog : Marc-Olivier Méhu
Technical & hardware support : Manuel Goepfert

Contact : metmap@orbifly.com




SOURCES & CREDITS :

   NOAA